Regional Weather Roundup
Issued by NWS

Home | Current Version | Previous Version | Graphics & Text | Print | Product List | Glossary On
Versions: 1 2 3 4 5 6 7 8 9 10 11 12 13 14 15 16 17 18 19 20 21 22 23 24 25 26 27 28 29 30 31 32 33 34 35 36 37 38 39 40 41 42 43 44 45 46 47 48 49 50
000
ASUS45 KTFX 291019
RWRMT
MONTANA HOURLY WEATHER ROUNDUP
NATIONAL WEATHER SERVICE GREAT FALLS MT
419 AM MDT TUE JUL 29 2014

NOTE: "FAIR" INDICATES FEW OR NO CLOUDS BELOW 12000 FEET WITH NO
SIGNIFICANT WEATHER AND/OR OBSTRUCTIONS TO VISIBILITY.

* THESE STATIONS ARE NOT UNDER NWS QUALITY CONTROL. THEY DO NOT
   REPORT WEATHER SUCH AS PRECIPITATION OR FOG.

MTZ001>007-043-291100-
WEST OF THE DIVIDE
CITY           SKY/WX    TMP DP  RH WIND       PRES   REMARKS
KALISPELL      CLEAR     55  48  77 NW3       30.13R
MISSOULA       PTCLDY    66  43  43 CALM      30.16R
BUTTE          CLEAR     52  39  61 SE3       30.30R
MULLAN PASS    CLEAR     70  37  30 SE5       30.32S
* LINCOLN      N/A       51  45  80 NE1        N/A
* LOOKOUT PASS N/A       62  44  52 N/A        N/A
* POLSON       N/A       61  50  67 SE1        N/A
* RONAN APT    PTCLDY    55  48  77 N/A        N/A
* SEELEY LAKE  N/A       51  44  77 NE2        N/A
* THOMP F APT  CLEAR     61  42  50 N3         N/A
* YAAK HILL    N/A       60  47  62 SE2        N/A
$$

MTZ008-052>055-291100-
SOUTHWEST MONTANA
CITY           SKY/WX    TMP DP  RH WIND       PRES   REMARKS
BOZEMAN        PTCLDY    55  46  72 E5        30.23S
DILLON         PTCLDY    57  43  60 S8        30.27S
W YELLOWSTONE  CLOUDY    55  52  90 NE3       30.39F
* THREE FORKS  PTCLDY    54  54 100 N/A        N/A
* MONIDA PASS  N/A       57  43  60 SW4        N/A
* RAYNOLDS PAS N/A       59  46  62 SW6        N/A
* WHITEHALL    N/A       59  41  51 E4G12      N/A
* WISE RIVER   N/A       51  42  71 SW3        N/A
$$

MTZ009>010-012-014-046-048-049-054-291100-
EAST SLOPES AND CENTRAL MONTANA
CITY           SKY/WX    TMP DP  RH WIND       PRES   REMARKS
CUT BANK       CLEAR     57  46  67 CALM      30.21F
GREAT FALLS    PTCLDY    63  46  54 N6        30.17S
HELENA         CLEAR     64  43  47 CALM      30.19R
MALMSTROM AFB  PTCLDY    68  50  53 E7        30.18R
* CONRAD       CLEAR     57  52  83 N/A        N/A
* DEARBORN     N/A       63  45  52 S2         N/A
* EAST GLACIER N/A       53  47  80 W5         N/A
* ROGERS PASS  N/A       61  41  48 NW2        N/A
* SAINT MARY   N/A       47  45  93 SE2        N/A
* SWEET GRASS  N/A       66  46  49 S17        N/A
* WHITE SULPH  N/A       64  42  45 NE8G14     N/A
$$

MTZ011-013-016-021-035-040-045-047-050-051-291100-
NORTH CENTRAL MONTANA
CITY           SKY/WX    TMP DP  RH WIND       PRES   REMARKS
HAVRE          CLEAR     64  46  52 E5        30.15S
LEWISTOWN      MOCLDY    66  48  52 SE23G32   30.22F
* FORT BENTON  PTCLDY    72  46  40 NE5       30.15R
* CHESTER      N/A       66  49  54 E3G10      N/A
* DENTON       N/A       64  52  65 SW2G12     N/A
* JUDITH GAP   N/A       63  43  48 NW8        N/A
* LOMA         N/A       69  48  47 NE10G15    N/A
$$

MTZ017>020-022>027-061-062-291100-
NORTHEAST MONTANA
CITY           SKY/WX    TMP DP  RH WIND       PRES   REMARKS
GLASGOW        CLOUDY    61  48  62 SE5       30.19S
GLENDIVE       PTCLDY    57  50  78 CALM      30.22F
JORDAN         CLOUDY    61  46  58 W5        30.20S
SIDNEY         PTCLDY    54  48  80 CALM      30.21F
WOLF POINT     MOCLDY    55  48  77 E3        30.19F
* BEAVER HILL  N/A       60  51  72 SE13       N/A
* CIRCLE       N/A       60  51  72 N/A        N/A
* LINDSAY DVD  N/A       58  50  75 N/A        N/A
$$

MTZ028>042-056>058-291100-
SOUTHCENTRAL AND SOUTHEAST MONTANA
CITY           SKY/WX    TMP DP  RH WIND       PRES   REMARKS
BAKER          PTCLDY    54  50  86 E8        30.23F
BILLINGS       PTCLDY    68  45  44 N5        30.19S
LIVINGSTON     PTCLDY    57  43  60 NW3       30.24S
MILES CITY     PTCLDY    64  52  65 S9        30.19F
* LAUREL APT   MOCLDY    66  43  43 N/A        N/A
* ROUNDUP APT  PTCLDY    68  41  38 N7         N/A
* ALZADA       N/A       58  50  75 NE7        N/A
* HYSHAM       N/A       66  47  51 E2         N/A
* LAME DEER    N/A       64  51  63 SE6        N/A
* REED POINT   N/A       60  49  67 E1         N/A
* ROSCOE HILL  N/A       67  42  40 W1         N/A
$$

REGIONAL REPORTS...DAKOTAS
CITY           SKY/WX    TMP DP  RH WIND       PRES   REMARKS
WILLISTON      CLEAR     54  52  93 CALM      30.21F
DICKINSON      CLEAR     54  48  80 S9        30.22F
CROSBY         N/A       59  59 100 S5        30.21F
TIOGA          FOG       50  50 100 E5        30.26S VSB 3
WATFORD CITY   CLEAR     54  52  93 SE5       30.20F
BISMARCK       CLEAR     52  50  93 CALM      30.24S
GRAND FORKS    CLEAR     52  50  93 CALM      30.17S
FARGO          CLEAR     54  50  86 CALM      30.18S
BUFFALO SD     PTCLDY    57  52  83 SE5       30.19S
RAPID CITY     CLEAR     55  48  77 CALM      30.26S
$$

REGIONAL REPORTS...WYOMING/IDAHO/WASHINGTON
CITY           SKY/WX    TMP DP  RH WIND       PRES   REMARKS
GILLETTE       RAIN      61  57  87 S16       30.28F
SHERIDAN       CLOUDY    64  55  73 SW3       30.23F
YELLOWSTONE LA CLOUDY    54  46  74 CALM      30.48F
SALMON         PTCLDY    55  46  72 CALM      30.21R
MULLAN PASS    CLEAR     70  37  30 SE5       30.32S
SAND POINT     CLEAR     54  52  93 W3        30.08S
SPOKANE        CLEAR     73  43  34 SE8       30.06S
$$

REGIONAL REPORTS...ALBERTA
CITY           SKY/WX    TMP DP  RH WIND       PRES   REMARKS
CALGARY        N/A       55  52  90 NW3       30.18S
LETHBRIDGE     CLEAR     54  52  93 SW8       30.16F
MEDICINE HAT   CLEAR     59  52  78 N8        30.14F
EDMONTON       PTCLDY    55  54  96 SE6       30.12F
WATERTON GATE  N/A       50  46  86 SW6        N/A
CARDSTON       N/A       54  50  86 SE3        N/A
MILK RIVER     N/A       61  46  58 SW5        N/A
$$

REGIONAL REPORTS...SASKATCHEWAN
CITY           SKY/WX    TMP DP  RH WIND       PRES   REMARKS
SWIFT CURRENT  MOCLDY    55  52  90 S9        30.23S
MOOSE JAW      FOG       55  54  96 W2        30.22F
REGINA         N/A       57  57 100 SE6       30.22S
VAL MARIE      N/A       52  50  93 NE6        N/A
ASSINIBOIA     N/A       52  50  93 CALM       N/A
CORONACH       N/A       46  45  96 W2         N/A

$$




USA.gov is the U.S. government's official web portal to all federal, state and local government web resources and services.